CAPE
1 0 0 0 0 0 0 0 0 0 0 0 0 0 0 0 0 0 0 0 0 0 0 0 0 0 0 0 0 0 0 0 0 0 0 0 0 0 0 0 0 0 0 0 0
1 0 0 0 0 0 0 0 0 0 0 0 0 0 0 0 0 0 0 0 0 0 0 0 0 0 0 0 0 0 0 0 0 0 0 0 0 0 0 0 0 0 0 0 0
1 0 0 0 0 0 0 0 0 0 0 0 0 0 0 0 0 0 0 0 0 0 0 0 0 0 0 0 0 0 0 0 0 0 0 0 0 0 0 0 0 0 0 0 0
0 0 0 0 0 0 0 0 0 0 0 0 0 0 0 0 0 0 0 0 0 0 0 0 0 0 0 0 0 0 0 0 0 0 0 0 0 0 0 0 0 0 0 0 0
0 0 0 0 0 0 0 0 0 0 0 0 0 0 0 0 0 0 0 0 0 0 0 0 0 0 0 0 0 0 0 0 0 0 0 0 0 0 0 0 0 0 0 0 0
0 0 0 0 0 0 0 0 0 0 0 0 0 0 0 0 0 0 0 0 0 0 0 0 0 0 0 0 0 0 0 0 0 0 0 0 0 0 0 0 0 0 0 0 0
0 0 0 0 0 0 0 0 0 0 0 0 0 0 0 0 0 0 0 0 0 0 0 0 0 0 0 0 0 0 0 0 0 0 0 0 0 0 0 0 0 0 0 0 0
0 0 0 0 0 0 0 0 0 0 0 0 0 0 0 0 0 0 0 0 0 0 0 0 0 0 0 0 0 0 0 0 0 0 0 0 0 0 0 0 0 0 0 0 0
0 0 0 0 0 0 0 0 0 0 0 0 0 0 0 0 0 0 0 0 0 0 0 0 0 0 0 0 0 0 0 0 0 0 0 0 0 0 0 0 0 0 0 0 0
0 0 0 0 0 0 0 0 0 0 0 0 0 0 0 0 0 0 0 0 0 0 0 0 0 0 0 0 0 0 0 0 0 0 0 0 0 0 0 0 0 0 0 0 0
0 0 0 0 0 0 0 0 0 0 0 0 0 0 0 0 0 0 0 0 0 0 0 0 0 0 0 0 0 0 0 0 0 0 0 0 0 0 0 0 0 0 0 0 0
0 0 0 0 0 0 0 0 0 0 0 0 0 0 0 0 0 0 0 0 0 0 0 0 0 0 0 0 0 0 0 0 0 0 0 0 0 0 0 0 0 0 0 0 0
0 0 0 0 0 0 0 0 0 0 0 0 0 0 0 0 0 0 0 0 0 0 0 0 0 0 0 0 0 0 0 0 0 0 0 0 0 0 0 0 0 0 0 0 0
0 0 0 0 0 0 0 0 0 0 0 0 0 0 0 0 0 0 0 0 0 0 0 0 0 0 0 0 0 0 0 0 0 0 0 0 0 0 0 0 0 7 0 0 0
0 0 0 0 0 0 0 0 0 0 0 0 0 0 0 0 0 0 0 0 0 0 0 0 0 0 0 0 0 0 0 0 0 0 0 0 0 0 0 2 0 0 0 0 0
0 0 0 0 0 0 0 0 0 0 0 0 0 0 0 0 0 0 0 0 0 0 0 0 0 0 0 0 0 0 0 0 0 0 0 0 4 0 4 1 4 0 0 0 0
0 0 0 0 0 0 0 0 0 0 0 0 0 0 0 0 0 0 0 0 0 0 0 0 0 0 0 0 0 0 0 0 0 0 0 9 24 0 1 29 12 0 0 0 0
0 0 0 0 0 0 0 0 0 0 0 0 0 0 0 0 0 0 0 0 0 0 0 0 0 0 0 0 0 0 0 0 0 0 0 0 0 0 33 3 0 0 0 0 0
0 0 0 0 0 0 0 0 0 0 0 0 0 0 0 0 0 0 0 0 0 0 0 0 0 0 0 0 0 0 0 0 0 0 0 0 0 67 5 7 0 0 0 0 0
0 0 0 0 0 0 0 0 0 0 0 0 0 0 0 0 0 0 0 0 0 0 0 0 0 0 0 0 0 0 0 0 0 0 0 0 0 1 94 24 0 0 0 0 0
0 0 0 0 0 0 0 0 0 0 0 0 0 0 0 0 0 0 0 0 0 0 0 0 0 0 0 0 0 0 2 15 7 8 4 1 0 6 109 22 1 0 0 0 0
0 0 0 0 0 0 0 0 0 0 0 0 0 0 0 0 0 0 0 0 0 0 0 0 0 0 0 0 0 0 0 16 29 0 21 29 0 1 0 1 16 4 0 0 0
0 0 0 0 0 0 0 0 0 0 0 0 0 0 0 0 0 0 0 0 0 0 0 0 0 0 0 0 4 9 4 7 11 36 4 15 0 0 0 11 43 0 0 0 0
0 0 0 0 0 0 0 0 0 0 0 0 0 0 0 0 0 0 0 0 2 0 0 0 0 0 0 0 0 0 0 0 3 4 0 0 0 0 16 49 1 0 0 0 0
0 0 0 0 0 0 0 0 0 0 0 0 0 0 0 0 0 0 0 0 0 1 1 0 0 2 2 8 8 1 0 0 1 4 13 0 0 24 48 0 0 1 0 0 0
0 0 0 0 0 0 0 0 0 0 0 0 0 0 0 0 0 0 0 0 0 0 0 9 0 3 3 18 2 0 0 0 0 0 7 14 0 8 2 0 0 0 0 0 1
0 0 0 0 0 0 0 0 0 0 0 0 0 0 0 0 0 0 0 0 0 0 0 0 20 6 0 22 6 0 0 0 15 7 21 6 10 0 0 0 0 0 0 3 6
CIN
0 0 0 0 0 0 0 0 0 0 0 0 0 0 0 0 0 0 0 0 0 0 0 0 0 0 0 0 0 0 0 0 0 0 0 0 0 0 0 0 0 0 0 0 0
-1 0 0 0 0 0 0 0 0 0 0 0 0 0 0 0 0 0 0 0 0 0 0 0 0 0 0 0 0 0 0 0 0 0 0 0 0 0 0 0 0 0 0 0 0
0 0 0 0 0 0 0 0 0 0 0 0 0 0 0 0 0 0 0 0 0 0 0 0 0 0 0 0 0 0 0 0 0 0 0 0 0 0 0 0 0 0 0 0 0
0 0 0 0 0 0 0 0 0 0 0 0 0 0 0 0 0 0 0 0 0 0 0 0 0 0 0 0 0 0 0 0 0 0 0 0 0 0 0 0 0 0 0 0 0
0 0 0 0 0 0 0 0 0 0 0 0 0 0 0 0 0 0 0 0 0 0 0 0 0 0 0 0 0 0 0 0 0 0 0 0 0 0 0 0 0 0 0 0 0
0 0 0 0 0 0 0 0 0 0 0 0 0 0 0 0 0 0 0 0 0 0 0 0 0 0 0 0 0 0 0 0 0 0 0 0 0 0 0 0 0 0 0 0 0
0 0 0 0 0 0 0 0 0 0 0 0 0 0 0 0 0 0 0 0 0 0 0 0 0 0 0 0 0 0 0 0 0 0 0 0 0 0 0 0 0 0 0 0 0
0 0 0 0 0 0 0 0 0 0 0 0 0 0 0 0 0 0 0 0 0 0 0 0 0 0 0 0 0 0 0 0 0 0 0 0 0 0 0 0 0 0 0 0 0
0 0 0 0 0 0 0 0 0 0 0 0 0 0 0 0 0 0 0 0 0 0 0 0 0 0 0 0 0 0 0 0 0 0 0 0 0 0 0 0 0 0 0 0 0
0 0 0 0 0 0 0 0 0 0 0 0 0 0 0 0 0 0 0 0 0 0 0 0 0 0 0 0 0 0 0 0 0 0 0 0 0 0 0 0 0 0 0 0 0
0 0 0 0 0 0 0 0 0 0 0 0 0 0 0 0 0 0 0 0 0 0 0 0 0 0 0 0 0 0 0 0 0 0 0 0 0 0 0 0 0 0 0 0 0
0 0 0 0 0 0 0 0 0 0 0 0 0 0 0 0 0 0 0 0 0 0 0 0 0 0 0 0 0 0 0 0 0 0 0 0 0 0 0 0 0 0 0 0 0
0 0 0 0 0 0 0 0 0 0 0 0 0 0 0 0 0 0 0 0 0 0 0 0 0 0 0 0 0 0 0 0 0 0 0 0 0 0 0 0 0 0 0 0 0
0 0 0 0 0 0 0 0 0 0 0 0 0 0 0 0 0 0 0 0 0 0 0 0 0 0 0 0 0 0 0 0 0 0 0 0 0 0 0 0 0 -13 0 0 0
0 0 0 0 0 0 0 0 0 0 0 0 0 0 0 0 0 0 0 0 0 0 0 0 0 0 0 0 0 0 0 0 0 0 0 0 0 0 0 -14 0 0 0 0 0
0 0 0 0 0 0 0 0 0 0 0 0 0 0 0 0 0 0 0 0 0 0 0 0 0 0 0 0 0 0 0 0 0 0 0 0 -7 0 -21 -36 -92 0 0 0 0
0 0 0 0 0 0 0 0 0 0 0 0 0 0 0 0 0 0 0 0 0 0 0 0 0 0 0 0 0 0 0 0 0 0 0 -6 -34 -39 -6 -43 -30 0 0 0 0
0 0 0 0 0 0 0 0 0 0 0 0 0 0 0 0 0 0 0 0 0 0 0 0 0 0 0 0 0 0 0 0 0 0 0 0 0 0 -106 -160 0 0 0 0 0
0 0 0 0 0 0 0 0 0 0 0 0 0 0 0 0 0 0 0 0 0 0 0 0 0 0 0 0 0 0 0 0 0 0 0 0 0 -29 -157 -145 0 0 0 0 0
0 0 0 0 0 0 0 0 0 0 0 0 0 0 0 0 0 0 0 0 0 0 0 0 0 0 0 0 0 0 0 0 0 -1 0 0 0 -19 -8 -37 -2 -30 0 0 0
0 0 0 0 0 0 0 0 0 0 0 0 0 0 0 0 0 0 0 0 0 0 0 0 0 0 0 0 0 0 -1 -3 -3 -3 -1 -1 0 -2 -21 -72 -23 -1 -8 0 0
0 0 0 0 0 0 0 0 0 0 0 0 0 0 0 0 0 0 0 0 0 0 0 0 0 0 0 0 0 0 0 -2 -5 0 -2 -2 0 -4 -2 -4 -21 -6 0 0 0
0 0 0 0 0 0 0 0 0 0 0 0 0 0 0 0 0 0 0 0 0 0 0 0 0 0 0 0 -1 -5 -2 -2 -1 -2 -2 0 0 0 0 -6 -20 0 0 0 0
0 0 0 0 0 0 0 0 0 0 0 0 0 0 0 0 0 0 0 0 -2 0 0 0 0 0 0 0 0 0 0 0 -2 -3 0 0 0 0 -4 0 -1 0 0 0 0
0 0 0 0 0 0 0 0 0 0 0 0 0 0 0 0 0 0 0 0 0 -2 -11 0 -2 -1 -1 -2 -2 -2 0 0 -1 -2 -4 0 0 0 -3 -11 0 -2 0 0 0
0 0 0 0 0 0 0 0 0 0 0 0 0 0 0 0 0 0 0 0 0 0 0 -4 -3 -1 -2 -2 -2 0 0 0 0 0 -2 -3 0 -8 -18 0 0 0 0 0 0
0 0 0 0 0 0 0 0 0 0 0 0 0 0 0 0 0 0 0 0 0 0 0 0 -3 -11 0 -2 -2 0 0 -1 -3 -2 -2 -3 -3 0 0 0 0 0 -1 0 -2
Wind_Speed
12 3 3 6 8 10 11 13 15 17 18 19 20 20 19 19 21 19 21 21 22 22 24 27 24 26 25 29 28 29 31 36 35 36 32 22 24 21 18 23 26 28 29 26 26
18 10 5 4 7 9 12 13 15 17 18 19 19 19 18 18 20 17 16 18 20 21 22 24 25 23 25 23 23 24 33 34 32 29 30 28 25 26 29 30 31 31 24 25 24
18 15 10 7 6 8 11 13 15 16 17 18 19 18 18 18 19 14 14 16 19 21 24 22 23 24 28 27 25 28 35 35 37 29 30 35 33 32 36 37 34 32 31 29 25
19 16 14 11 8 10 10 12 15 16 17 18 18 17 18 18 15 13 14 16 19 21 22 19 21 25 27 28 27 30 33 35 36 33 34 36 38 39 38 40 38 37 36 34 33
18 17 15 16 16 12 9 10 13 15 17 18 17 16 16 14 12 11 15 20 21 23 19 20 22 24 27 27 27 31 33 33 29 29 32 34 37 41 41 38 37 35 35 34 32
19 18 16 17 16 14 12 10 13 15 16 18 16 15 17 14 13 12 17 21 19 20 18 20 21 24 25 27 28 32 33 33 33 34 33 35 37 38 39 36 32 30 32 32 33
21 18 14 16 15 14 15 16 12 15 18 18 12 15 16 13 15 14 17 18 18 19 21 19 23 24 27 27 26 29 34 36 36 31 31 31 37 34 31 28 31 34 35 36 31
25 21 16 11 11 9 8 7 10 14 16 7 13 15 14 16 16 16 18 17 17 18 19 22 24 24 23 24 29 28 28 32 29 16 24 26 38 36 31 26 35 35 35 36 34
25 24 20 14 10 8 7 8 12 14 17 16 13 11 14 15 15 18 18 19 19 17 16 20 20 20 23 23 30 23 27 31 20 17 23 28 42 35 36 39 40 37 35 35 34
26 23 22 18 13 10 9 12 13 14 15 13 13 7 13 15 17 19 18 17 18 20 20 12 17 19 19 21 31 31 34 36 38 38 39 41 45 42 41 41 43 42 38 36 35
26 24 23 19 15 17 17 14 15 14 11 18 17 16 16 18 15 14 20 20 14 16 21 18 23 25 26 26 30 33 36 39 38 37 41 42 44 42 41 43 42 40 39 36 35
26 24 23 22 18 12 15 14 19 19 17 13 16 16 17 17 15 16 22 22 18 22 23 20 18 21 24 28 29 31 35 38 37 36 39 43 48 45 39 38 32 30 29 30 29
29 25 24 21 20 8 17 20 17 19 15 11 15 17 18 17 16 20 24 22 19 20 20 23 25 25 26 28 31 32 36 39 42 41 40 41 46 41 33 33 23 21 26 24 25
29 26 23 21 18 18 17 22 14 17 15 11 13 15 17 17 15 20 22 21 17 22 23 20 18 24 26 29 31 36 34 38 41 43 48 38 55 44 36 32 23 17 17 21 23
26 21 18 16 7 22 22 19 15 15 18 14 15 17 15 19 21 16 20 19 21 23 21 17 23 26 27 27 29 34 33 34 37 40 43 38 36 43 32 27 20 15 16 18 21
28 22 20 12 12 23 21 16 14 15 18 15 17 19 19 16 19 20 19 17 18 21 18 18 20 18 22 27 25 28 32 32 31 32 37 35 31 32 26 21 14 14 21 19 24
28 23 17 17 21 23 19 14 16 18 15 17 19 22 22 20 21 19 23 20 23 25 20 30 22 15 19 26 27 29 34 40 35 39 35 27 30 21 40 36 17 16 24 24 26
21 7 12 12 23 20 15 14 17 18 19 20 21 24 19 23 20 22 21 21 17 23 27 24 24 16 20 26 30 28 22 28 39 42 45 40 33 33 26 21 24 28 29 26 27
7 14 14 18 19 16 13 15 21 22 22 25 25 19 16 17 18 21 22 19 20 23 24 26 19 34 30 20 23 24 22 26 28 27 38 29 29 23 25 25 33 29 28 29 32
20 14 18 19 16 14 14 17 20 20 21 21 21 20 22 24 26 24 25 17 20 19 22 24 35 23 21 20 18 14 18 27 24 32 38 31 38 41 23 30 27 24 27 35 37
18 16 19 19 15 13 16 20 19 19 22 20 22 21 22 22 21 23 19 18 17 20 26 28 21 23 29 24 24 27 19 18 22 20 27 40 25 29 39 44 28 32 40 40 40
19 19 20 17 14 14 20 19 19 19 17 18 19 19 19 23 20 18 18 17 20 22 26 27 25 28 27 24 18 15 20 22 25 25 21 27 28 22 38 38 43 42 44 43 41
20 17 19 17 18 21 20 20 16 19 20 19 19 19 20 22 22 20 20 21 21 21 23 26 25 37 32 20 16 19 23 29 29 27 27 28 29 34 45 48 43 47 45 42 44
19 18 21 18 19 23 25 23 22 15 20 18 19 22 21 22 22 22 24 25 26 19 18 22 26 25 29 30 34 34 32 30 29 29 32 27 34 29 42 43 40 45 45 46 47
23 21 21 22 20 26 23 24 23 23 19 23 21 20 22 23 25 28 26 31 30 24 24 22 30 29 30 32 34 38 38 36 32 29 30 33 31 33 42 39 40 42 43 52 54
24 24 26 27 23 23 20 20 25 24 27 26 28 29 30 29 29 34 36 34 33 33 31 25 35 34 35 35 40 41 35 35 35 34 33 34 35 32 41 43 40 46 55 57 51
27 27 23 25 23 22 23 24 26 27 24 24 27 30 29 30 33 32 32 32 31 33 33 33 32 34 41 37 41 43 32 27 29 33 31 34 34 40 47 40 43 55 55 53 49
Wind_Direction
311 275 242 249 243 256 246 252 265 262 269 265 266 265 269 270 264 266 270 281 283 282 280 271 276 276 279 273 274 279 277 269 273 275 287 304 295 302 316 304 301 299 293 299 314
321 298 259 209 230 234 244 241 246 260 261 253 244 260 267 284 271 273 291 291 287 288 284 277 273 280 279 286 282 281 272 274 279 290 286 298 303 300 297 295 297 299 301 301 303
321 308 287 265 227 227 232 229 230 227 234 240 239 244 246 266 264 300 315 303 293 288 287 290 283 279 273 274 280 280 272 279 279 295 295 288 293 295 291 291 295 296 297 299 303
325 312 301 285 264 259 234 220 217 216 222 229 236 243 245 237 275 313 294 289 286 292 293 299 290 279 276 276 283 278 285 283 285 292 294 289 291 290 292 289 291 291 293 294 296
324 317 308 302 295 277 235 209 190 190 203 215 230 244 243 266 310 318 277 253 267 276 296 295 288 286 278 286 285 287 286 289 293 298 295 294 291 289 289 295 294 294 293 294 294
321 316 309 306 300 291 274 224 179 153 162 195 238 255 247 298 322 337 291 278 302 296 303 299 300 298 290 292 290 292 293 294 295 293 295 295 294 295 294 295 296 295 295 295 295
322 314 309 309 304 297 298 313 246 185 167 179 302 299 270 321 307 337 315 313 316 311 300 316 306 299 299 299 302 299 296 294 293 294 294 301 297 299 304 301 298 295 295 293 293
324 317 309 302 293 278 264 229 216 198 202 271 344 327 333 329 321 337 319 322 330 325 320 321 312 306 307 307 304 303 305 303 315 305 306 305 295 303 305 308 302 300 297 297 294
322 321 310 299 282 253 207 182 176 182 162 165 134 51 355 12 354 341 334 318 325 336 340 336 330 320 317 310 308 306 303 308 308 323 315 303 297 300 302 301 302 300 298 297 295
319 314 311 299 277 251 219 159 153 189 128 145 176 307 19 353 350 339 352 350 334 327 329 338 331 326 322 315 305 309 306 304 300 304 305 301 297 303 304 301 299 298 298 297 297
318 311 308 296 275 283 290 76 37 40 108 329 344 355 8 359 26 21 352 343 351 343 325 333 319 313 322 321 315 311 307 305 307 309 305 302 301 305 306 303 300 299 298 297 298
315 307 302 300 281 231 35 27 348 335 341 13 7 16 8 10 5 8 358 338 342 327 328 330 319 331 330 325 320 317 311 308 311 313 310 307 302 305 307 305 302 309 309 310 310
314 306 301 291 283 27 25 353 351 351 351 9 4 1 3 7 358 353 352 349 344 336 335 325 320 334 330 326 320 319 314 313 311 314 311 309 302 307 314 316 310 312 315 321 320
313 303 298 287 23 15 13 344 37 5 0 12 9 6 7 9 2 356 355 352 354 339 337 336 346 336 332 328 328 319 325 320 316 313 306 315 301 305 309 307 300 311 328 333 330
307 291 278 27 73 360 346 353 13 14 344 6 5 3 11 357 347 5 359 358 340 336 340 344 339 334 333 336 335 326 332 329 324 316 312 312 307 307 312 313 325 335 338 340 338
307 289 282 55 55 348 352 11 17 2 340 2 353 351 348 352 350 348 352 358 348 340 343 335 339 341 343 339 343 340 334 335 332 323 310 315 310 311 319 332 326 308 308 330 329
304 288 19 18 2 344 355 21 356 341 1 356 348 344 341 341 341 348 342 343 343 335 335 325 336 358 353 343 347 344 337 331 334 332 325 344 326 315 298 320 332 320 319 318 319
294 66 58 46 352 353 18 11 350 350 348 350 342 337 340 342 345 342 341 341 2 343 333 336 336 352 354 343 338 344 351 341 329 328 322 321 315 313 330 326 325 333 328 328 320
280 52 52 25 9 15 16 354 341 344 344 338 335 341 344 353 351 342 338 337 338 335 335 332 336 313 329 348 352 346 349 349 338 337 328 331 320 324 337 322 309 321 320 315 318
28 41 33 25 32 34 10 352 350 354 347 347 340 347 336 334 334 335 335 347 336 340 341 333 313 338 341 343 339 321 337 343 348 339 332 337 320 304 329 324 326 316 321 316 319
37 31 28 32 52 29 2 356 357 6 354 354 344 341 339 340 342 338 343 345 348 336 331 326 329 330 327 329 332 335 330 329 333 330 328 326 329 322 313 312 314 313 316 318 314
31 18 18 33 26 32 2 359 359 357 7 1 354 352 349 340 345 347 345 347 347 337 330 329 327 323 323 322 321 330 330 333 329 328 321 321 290 321 312 311 307 311 311 313 316
16 21 23 22 6 351 0 355 9 355 355 353 352 351 346 340 343 343 338 335 336 334 333 332 329 321 326 341 355 338 335 330 326 324 316 314 313 326 312 308 312 310 309 314 316
13 7 354 10 11 345 340 343 342 10 354 354 347 340 341 337 335 332 327 328 328 328 329 328 320 314 312 316 319 315 317 318 316 313 314 298 302 315 316 314 316 309 312 313 315
356 356 349 339 348 342 345 338 338 340 355 347 345 343 339 334 330 326 327 323 320 322 318 314 310 310 309 311 313 312 313 313 310 306 299 303 303 325 320 320 319 315 317 312 314
348 341 331 326 340 344 349 350 340 342 337 335 330 327 327 326 325 322 320 320 317 316 311 305 304 306 303 310 312 310 313 311 311 313 316 323 321 329 323 324 322 317 315 314 317
348 336 337 328 335 342 345 341 337 336 341 340 333 328 327 326 324 322 319 315 309 307 306 304 304 308 302 311 311 309 317 322 322 320 319 320 326 328 319 324 320 316 316 317 320